Location: Chuathbaluk
(61.5726°N, 159.2454°W)
Time: 16:04:47
(UTC+00:00)

NOAA 15 - Pass Details

Date: 19 January 2021
Orbit: 798 x 812 km, 98.7° (Epoch: 05 March)

Event Time Altitude Azimuth Distance (km) Brightness Sun altitude
Rises 04:51:49 0° 161° (SSE) 3,303 7.7 -18.2°
Reaches altitude 10° 04:54:08 10° 163° (SSE) 2,378 7.0 -18.5°
Maximum altitude 04:59:25 83° 251° (WSW) 819 4.6 -19.1°
Drops below altitude 10° 05:04:45 10° 340° (NNW) 2,402 7.2 -19.8°
Sets 05:07:06 0° 342° (NNW) 3,339 8.0 -20.0°
